AirNav   Phillips 66 Aviation Fuel
 
 1492 users online  

L90 Ocotillo Airport
Ocotillo Wells, California, USA

GOING TO OCOTILLO WELLS?


FAA INFORMATION EFFECTIVE 26 APRIL 2018

Location

FAA Identifier: L90
Lat/Long: 33-08-52.0000N / 116-07-53.7000W
33-08.866667N / 116-07.895000W
33.1477778 / -116.1315833
(estimated)
Elevation: 160 ft. / 49 m (estimated)
Variation: 13E (1985)
Time zone: UTC -7 (UTC -8 during Standard Time)
Zip code: 92004

Airport Operations

Airport use: Open to the public
Activation date: 06/1948
Control tower: no
ARTCC: LOS ANGELES CENTER
FSS: SAN DIEGO FLIGHT SERVICE STATION
NOTAMs facility: SAN (NOTAM-D service available)
Attendance: UNATNDD
Pattern altitude: 960 ft. MSL
Wind indicator: yes
Segmented circle: yes

Airport Communications

CTAF: 122.9
WX AWOS-3 at L08 (12 nm NW): 126.575 (760-767-3308)

Nearby radio navigation aids

VOR radial/distance  VOR name  Freq  Var
JLIr074/22.8JULIAN VORTAC114.0015E
TRMr164/28.9THERMAL VORTAC116.2013E
IPLr293/39.5IMPERIAL VORTAC115.9014E

Airport Services

Parking: tiedowns
Airframe service: NONE
Powerplant service: NONE
Bottled oxygen: NONE
Bulk oxygen: NONE

Runway Information

Runway 13/31

Dimensions: 4210 x 150 ft. / 1283 x 46 m
Surface: dirt, in good condition
RUNWAY 13  RUNWAY 31
Latitude: 33-09.220833N33-08.647833N
Longitude: 116-08.170167W116-07.704000W
Traffic pattern: leftright
Runway end identifier lights: nono
Obstructions: 60 ft. hill, 2000 ft. from runway, 33:1 slope to clear19 ft. road, 420 ft. from runway, 22:1 slope to clear

Runway 9/27

Dimensions: 2475 x 150 ft. / 754 x 46 m
Surface: dirt, in good condition
RUNWAY 9  RUNWAY 27
Latitude: 33-08.802667N33-08.699000N
Longitude: 116-08.058833W116-07.589333W
Traffic pattern: rightleft
Runway end identifier lights: nono
Obstructions: 50 ft. hill, 800 ft. from runway, 16:1 slope to clear77 ft. hill, 3000 ft. from runway, 38:1 slope to clear

Airport Ownership and Management from official FAA records

Ownership: Publicly-owned
Owner: COUNTY OF SAN DIEGO
1960 JOE CROSSON DRIVE
EL CAJON, CA 92020-1236
Phone 619-956-4800
Manager: MARC BASKEL
1960 JOE CROSSON DRIVE
EL CAJON, CA 92020-1236
Phone 619-956-4800
AMGRS OFFICE AT GILLESPIE FIELD.

Airport Operational Statistics

Aircraft operations: avg 34/week *
67% military
33% transient general aviation
* for 12-month period ending 31 May 2017

Additional Remarks

FLD UNUSABLE WHEN WET.
ALL RDO EQUIPPED ACFT MUST SELF-ANNOUNCE ON CTAF PRIOR TO LDG OR DEP.
PPR FOR ALL MIL ACFT; CTC AMGR.
ULTRALIGHT AREA NE QUAD OF AP.
OBSTN TO FAR PART 77, HILLS SURROUND ARPT.
RYS 09 & 27 AND RYS 13 & 31 THLDS MARKED BY WHITE PAVING BLOCKS.
CTN FOR OCNL UNAUTHORIZED OFF ROAD VEHICLES ON AND IN VCNTY OF RWYS AND TWYS.
ALL RY INTERSECTIONS MARKED BY WHITE PAVING BLOCKS.
BE ALERT FOR HIGH SPD MIL TILT ROTOR AND ULTRALIGHT OPS ON AND IN VCNTY OF ARPT.
ALL RWYS CLSD SS-SR, NOT LGTD.

Instrument Procedures

There are no published instrument procedures at L90.

Some nearby airports with instrument procedures:

L08 - Borrego Valley Airport (12 nm NW)
KTRM - Jacqueline Cochran Regional Airport (29 nm N)
KNJK - El Centro NAF Airport (30 nm SE)
KCLR - Cliff Hatfield Memorial Airport (31 nm E)
KBWC - Brawley Municipal Airport (32 nm E)
 
Loc | Ops | Rwys | IFR | FBO | Links
Com | Nav | Svcs | Stats | Notes

AirNav Hotels Sweepstakes
 
Area around L90 (Ocotillo Airport)
 
Road maps at: MapQuest Bing Google
 
Aerial photo
WARNING: Photo may not be current or correct
Aerial photo of L90 (Ocotillo Airport)
Photo taken 11-Nov-2009

Do you have a better or more recent aerial photo of Ocotillo Airport that you would like to share? If so, please send us your photo.

 
Sectional chart

 
Airport distance calculator
Flying to Ocotillo Airport? Find the distance to fly.

From to L90

Sunrise and sunset
Times for 21-May-2018
 Local
(UTC-7)
 Zulu
(UTC)
Morning civil twilight05:1412:14
Sunrise05:4212:42
Sunset19:4002:40
Evening civil twilight20:0803:08

Current date and time
Zulu (UTC)  21-May-2018 20:49:46
Local (UTC-7)  21-May-2018 13:49:46
 
METAR
KTRM 
29nm N 
211952Z AUTO 10SM CLR 32/07 A2967 RMK AO2 SLP048 T03220067
KNJK 
31nm SE 
211956Z 20008KT 160V220 10SM FEW200 31/01 A2970 RMK AO2 SLP073 T03110011 $
KIPL 
33nm SE 
211953Z AUTO 25004KT 10SM CLR 31/06 A2969 RMK AO2 SLP053 T03110056
KCZZ 
35nm SW 
211952Z AUTO 23016G22KT 18/07 A2984 RMK AO1 SLP084 T01780067
KRNM 
40nm W 
211953Z 00000KT 10SM OVC023 17/10 A2990 RMK AO2 SLP116 T01670100
KPSP 
44nm NW 
211953Z 33017G27KT 10SM CLR 28/08 A2973 RMK AO2 PK WND 33028/1934 SLP063 T02830083
KSEE 
46nm SW 
211947Z 22008KT 10SM BKN029 18/10 A2990
TAF
KTRM 
29nm N 
211735Z 2118/2218 33009KT P6SM SCT200 FM212300 29014G22KT P6SM SCT200 FM220200 33018G28KT P6SM SKC FM221300 33012G20KT P6SM SKC
KNJK 
31nm SE 
2115/2215 27007KT 9999 SCT200 QNH2966INS TEMPO 2119/2121 27015KT FM212100 26015G25KT 9999 FEW200 520009 520904 QNH2965INS FM212200 27027G37KT 9999 FEW200 530009 530904 QNH2965INS FM220500 26020G30KT 9999 SKC 520009 QNH2970INS TEMPO 2205/2207 27020G25KT FM220700 26015KT 9999 SKC QNH2972INS T33/2123Z T16/2213Z FS30130
KIPL 
33nm SE 
211725Z 2118/2218 10006KT P6SM SCT200 FM212000 25012KT P6SM BKN200 FM212200 27017G24KT P6SM SCT200 TEMPO 2123/2203 27020G30KT FM220800 27008KT P6SM SKC
NOTAMs
Click for the latest NOTAMs
NOTAMs are issued by the DoD/FAA and will open in a separate window not controlled by AirNav.

 

 
 

Where to Eat: Catering, Restaurants, Food shops

  
 Business Name 
 
 Contact 
 
 Services / Description 
 
Distance
 
Comments
  
Leapin Lizard RV Ranch 760-767-4526
[web site]
[email]
Internet access, Restrooms, Showers, Lodging, Camping on site

More info about Leapin Lizard RV Ranch
0.2 miles
free shuttle
 
   write
 

Would you like to see your business listed on this page?

 If your business provides an interesting product or service to pilots, flight crews, aircraft, or users of the Ocotillo Airport, you should consider listing it here.  To start the listing process, click on the button below
 
Add a business
 

Other Pages about Ocotillo Airport

www.co.san-diego.ca.us/...
 
Update a link
 
Copyright © AirNav, LLC. All rights reserved. Privacy Policy  Contact